CZ-6A DEB

Satellite information

Favourite Embed

Satellite Type and Status

DEBRISIN ORBIT

Key statistics

Satellite CZ-6A DEB at a glance.

Uptime

495

Days in orbit

Revolutions

≈ 14.1

Per day

Orbit

LEO

Low Earth Orbit

Inclination

89.1

Latest

Satellite identification and parameters

Extended collection of information and parameters for CZ-6A DEB.

Object identification

Identified? True

Debris? True

Object name: CZ-6A DEB

International designator: 2024-140JP

Object number (NORAD): 60860

Object ID (CCSDS): 60860

Country: PEOPLES REPUBLIC OF CHINA (PRC)

Current information (Y/N): Y

RCS size: SMALL

Orbital parameters

Period: 101.811 minutes

Inclination: 89.0521 deg

SMA: 7222.535 km

Apoapsis: 894.79 km

Periapsis: 794.01 km

RAAN: 299.1155 deg

Eccentricy: 0.00697683

Argument of periapsis: 76.5814 deg

Mean anomaly: 284.3137 deg

Mean motion: 14.14387086 rev/day

Mean motion (dot): 0.00000493 rev/day2

B* drag term: 0.0002446213 1/REarth

Two-line elements (TLE)

Creation date: Dec. 13, 2025, 5:47 p.m.

Reference frame: TEME

Reference center: EARTH

Epoch: Dec. 13, 2025, 6:37 a.m. UTC

TLE line 0: 0 CZ-6A DEB

TLE line 1: 1 60860U 24140JP 25347.27623967 .00000493 00000-0 24462-3 0 9991

TLE line 2: 2 60860 89.0521 299.1155 0069768 76.5814 284.3137 14.14387086 68538

Live tracking on map

Real-time ground track for satellite CZ-6A DEB.

In-orbit conjunctions

A list of the most updated potential collisions computed for object CZ-6A DEB.

Target Orbit TCA Probability of collision Miss distance Type
FENGYUN 1C DEB SSO 2025-02-17 14:41:14 0.0001296901 854.0 (m) DEBRIS
FENGYUN 1C DEB SSO 2025-02-05 02:57:47 0.0002096605 482.0 (m) DEBRIS
FENGYUN 1C DEB SSO 2024-12-05 05:44:42 0.000143322 896.0 (m) DEBRIS
SCOUT G-1 DEB LEO 2024-11-22 13:53:05 0.0001881684 558.0 (m) DEBRIS
FENGYUN 1C DEB SSO 2024-09-19 03:26:25 0.0001198468 154.0 (m) DEBRIS

Associated space launch

18 Low Earth Orbit communication satellites with Ku, Q and V band payloads for the G60 constellation operated by Shanghai Spacecom Satellite Technology (SSST) with funding backed by the Shanghai local government. Initial constellation will consist of 1296 satellites by 2027 with long term plans to expand it to 12000 satellites.

CZ-6A DEB was lifted into orbit during the mission ‘Long March 6A | G60 Polar Group 01’, on board a Long March 6A space rocket.

The launch took place on Aug. 6, 2024, 6:42 a.m. from Launch Complex 9A.

For more information about the launch, click the button.

Launch to space Long March 6A | G60 Polar Group 01
Long March 6A | G60 Polar Group 01

Agency: N/A

Status: Launch Successful

Launch date: Aug. 6, 2024, 6:42 a.m. UTC

Rocket: Long March 6A

Launch pad: Launch Complex 9A

Location: Taiyuan Satellite Launch Center, People's Republic of China

...

Latest news about this satellite

News about space launch
Brightness of first Chinese broadband constellation satellites alarms astronomers

The first satellites of a Chinese broadband constellation are significantly brighter than those of Western systems, posing a new challenge for astronomers.

News about space launch
Chinese rocket stage breaks up into cloud of more than 700 pieces of space debris

HELSINKI — A Chinese Long March 6A rocket’s upper stage has fragmented into a cloud of over 700 pieces of space debris, adding to concerns about long-term orbital safety. China […]

News about space launch
China's Thousand Sails Megaconstellation Kicks Off with Dangerous Debris Field

China's Thousand Sails Megaconstellation Kicks Off with Dangerous Debris Field


Newsletter sign-up

Weekly statistics, charts and insights to help you stay on top of the space industry.